{"data":{"norad_id":69839,"epoch":"2026-09-20T04:20:17.172384Z","epoch_age_seconds":45318,"freshness":"FRESH","line1":"1 69839U 26154W   26263.18075431  .00021587  00000+0  64832-3 0  9999","line2":"2 69839  53.1590 332.8939 0001589  62.9380 297.1785 15.34393555 13194","mean_motion":15.34393555,"eccentricity":0.0001589,"inclination_deg":53.159,"raan_deg":332.8939,"arg_perigee_deg":62.938,"mean_anomaly_deg":297.1785,"bstar":0.00064832,"rev_number":1319,"period_min":93.848152275379,"perigee_km":461.63538361433,"apogee_km":463.80940873043,"semimajor_km":6840.8593961724,"source":"CELESTRAK","updated_at":"2026-09-20T09:00:44.296726Z"}}